Location: Olomouc
(49.5830°N, 17.2500°E)
Time: 06:25:24
(UTC+02:00)

ISS - Visible Passes

Search period start: 18 May 2021 00:00
Search period end: 28 May 2021 00:00
Orbit: 417 x 422 km, 51.6° (Epoch: 18 May)

Date Brightness Start Highest point End Pass type
(mag) Time Alt. Az. Time Alt. Az. Time Alt. Az.
18 May -3.3 01:20:11 10° WNW 01:22:53 54° WNW 01:22:53 54° WNW visible
18 May -3.6 21:18:58 10° SW 21:22:15 53° SSE 21:25:33 10° ENE visible
18 May -3.3 22:55:43 10° W 22:59:04 62° N 23:02:26 10° ENE visible
19 May -3.6 00:32:43 10° WNW 00:36:05 73° NNE 00:36:27 64° ENE visible
19 May -3.5 22:08:12 10° W 22:11:33 71° NNW 22:14:56 10° ENE visible
19 May -3.4 23:45:14 10° WNW 23:48:35 63° N 23:50:16 26° E visible
20 May -1.7 01:22:06 10° WNW 01:23:12 19° W 01:23:12 19° W visible
20 May -3.7 21:20:42 10° WSW 21:24:04 86° NNW 21:27:28 10° ENE visible
20 May -3.2 22:57:44 10° WNW 23:01:04 59° N 23:04:10 12° E visible
21 May -3.1 00:34:37 10° WNW 00:37:06 45° W 00:37:06 45° W visible
21 May -3.2 22:10:12 10° W 22:13:32 58° N 22:16:52 10° ENE visible
21 May -3.9 23:47:07 10° WNW 23:50:31 88° NNE 23:51:03 60° ESE visible
22 May -3.2 21:22:40 10° W 21:26:00 62° N 21:29:21 10° ENE visible
22 May -3.6 22:59:38 10° WNW 23:03:01 73° NNE 23:05:02 22° E visible
23 May -1.9 00:36:35 10° W 00:37:58 21° W 00:37:58 21° W visible
23 May -3.3 22:12:09 10° WNW 22:15:30 63° N 22:18:51 10° E visible
23 May -3.4 23:49:01 10° WNW 23:51:59 48° SW 23:51:59 48° SW visible
24 May -3.2 21:24:37 10° WNW 21:27:58 59° N 21:31:18 10° E visible
24 May -3.8 23:01:30 10° WNW 23:04:52 71° SSW 23:06:01 38° SE visible
25 May -3.8 22:14:01 10° WNW 22:17:23 89° N 22:20:04 15° ESE visible
25 May -2.0 23:51:07 10° W 23:53:00 22° WSW 23:53:00 22° WSW visible
26 May -3.5 21:26:31 10° WNW 21:29:53 73° NNE 21:33:15 10° E visible
26 May -3.0 23:03:27 10° W 23:06:34 35° SSW 23:07:05 33° S visible
27 May -3.4 22:15:52 10° WNW 22:19:10 51° SSW 22:21:12 20° SE visible
